Location: Ciserano
(45.5833°N, 9.6000°E)
Time: 05:00:12
(UTC+00:00)

Cosmos 1633 Rocket - Pass Details

Date: 29 November 2020
Orbit: 607 x 623 km, 82.5° (Epoch: 27 January)

Event Time Altitude Azimuth Distance (km) Brightness Sun altitude
Rises 05:46:04 0° 178° (S) 2,891 6.8 -9.2°
Reaches altitude 10° 05:48:18 10° 176° (S) 1,989 6.0 -8.9°
Maximum altitude 05:52:39 63° 95° (E) 700 3.7 -8.2°
Drops below altitude 10° 05:57:02 10° 15° (NNE) 2,002 5.6 -7.5°
Sets 05:59:17 0° 12° (NNE) 2,911 6.4 -7.1°
